Regional Weather Roundup
Issued by NWS

Home | Current Version | Previous Version | Text Only | Print | Product List | Glossary On
Versions: 1 2 3 4 5 6 7 8 9 10 11 12 13 14 15 16 17 18 19 20 21 22 23 24 25 26 27 28 29 30 31 32 33 34 35 36 37 38 39 40 41 42 43 44 45 46 47 48 49 50
000
ASUS45 KTFX 070710
RWRMT
MONTANA REGIONAL WEATHER ROUNDUP
NATIONAL WEATHER SERVICE GREAT FALLS MT
100 AM MDT TUE JUL 07 2015

NOTE: "FAIR" INDICATES FEW OR NO CLOUDS BELOW 12000 FEET WITH NO
SIGNIFICANT WEATHER AND/OR OBSTRUCTIONS TO VISIBILITY.

MTZ001>007-043-070800-
WEST OF THE DIVIDE

CITY           SKY/WX    TMP DP  RH WIND       PRES   REMARKS
KALISPELL      SUNNY     53  45  74 CALM      30.02S
MISSOULA       CLEAR     60  36  40 NW6       30.05S
BUTTE          CLEAR     54  37  52 SE8       30.19S
MULLAN PASS    CLOUDY    64  38  38 SE5       30.19S
DEER LODGE       N/A     57  30  35 CALM      30.17S
EUREKA           N/A     66  45  45 CALM      30.00S
HAMILTON         N/A     59  41  51 S6        30.07S
LIBBY            N/A     64  43  45 S3        30.00S
PLAINS           N/A     61  44  53 CALM      30.01S
RONAN            N/A     58  49  72 NE2       30.07S
THOMPSON FALLS   N/A     64  44  48 CALM      30.04R
$$

MTZ008-052>055-070800-
SOUTHWEST MONTANA

CITY           SKY/WX    TMP DP  RH WIND       PRES   REMARKS
BOZEMAN        CLEAR     59  51  75 N3        30.12S
DILLON         PTCLDY    62  48  60 SE7       30.15S
W YELLOWSTONE  CLOUDY    55  54  94 E3        30.24S
THREE FORKS      N/A     62  56  81 CALM      30.10S
$$

MTZ009-010-012-014-046-048-049-054-070800-
EAST SLOPES AND CENTRAL MONTANA

CITY           SKY/WX    TMP DP  RH WIND       PRES   REMARKS
CUT BANK       CLEAR     56  47  71 SE9       30.09S
GREAT FALLS    CLEAR     53  49  86 SW6       30.09R
MALMSTROM AFB  CLEAR     56  51  84 S2        30.09S
HELENA         CLEAR     61  49  64 W5        30.09F
CONRAD           N/A     52  51  96 E1        30.10F
$$

MTZ011-013-016-021-045-047-050-051-070800-
NORTH CENTRAL MONTANA

CITY           SKY/WX    TMP DP  RH WIND       PRES   REMARKS
HAVRE          CLEAR     57  51  80 E5        30.06S
LEWISTOWN      CLEAR     55  48  77 S6        30.11F
CHINOOK          N/A     57  50  77 E5        30.06F
FORT BENTON      N/A     59  50  72 CALM      30.07S
$$

MTZ017>020-022>027-061-062-070800-
NORTHEAST MONTANA

CITY           SKY/WX    TMP DP  RH WIND       PRES   REMARKS
GLASGOW        CLEAR     57  47  69 E10       30.10F
JORDAN           N/A     57  47  69 E7        30.11F
SIDNEY         CLEAR     57  48  72 S3        30.17S
WOLF POINT     PTCLDY    55  50  83 NE5       30.13S
MALTA            N/A     56  46  69 CALM      30.05S
PLENTYWOOD       N/A     54  45  71 SE6       30.15S
POPLAR           N/A     57  52  82 E7        30.14S
SCOBEY           N/A     55  44  66 SE3       30.12S
$$

MTZ028>42-056>058-070800-
SOUTHCENTRAL AND SOUTHEAST MONTANA

CITY           SKY/WX    TMP DP  RH WIND       PRES   REMARKS
BAKER          MOCLDY    54  51  90 E8        30.20R
BILLINGS       PTCLDY    60  51  72 N5        30.12F
LIVINGSTON     CLEAR     59  48  67 SE7       30.15S
MILES CITY     CLEAR     58  48  69 SE7       30.12F
EKALAKA          N/A     57  47  69 SE9       30.15S
FORSYTH          N/A     59  50  72 SE6       30.11F
LAUREL           N/A     58  49  72 N2        30.09F
ROUNDUP          N/A     57  41  55 CALM      30.02F
$$

REGIONAL REPORTS...DAKOTAS

CITY           SKY/WX    TMP DP  RH WIND       PRES   REMARKS
WILLISTON      CLEAR     53  46  77 CALM      30.17S
MINOT          CLEAR     50  45  83 SW3       30.17S
DICKINSON      CLEAR     51  48  89 S8        30.19R FOG
BEACH          CLOUDY    50  50 100 SE8       30.19S FOG
CROSBY         FAIR      50  50 100 S9        30.16S
BISMARCK       CLEAR     50  48  93 E3        30.21R
GRAND FORKS    CLEAR     47  44  90 W5        30.16S
FARGO          CLEAR     48  43  82 NW5       30.17R
BUFFALO SD       N/A     55  50  83 E9        30.14S
RAPID CITY     MOCLDY    59  57  93 E5        30.20S
$$

REGIONAL REPORTS...WYOMING/IDAHO/WASHINGTON

CITY           SKY/WX    TMP DP  RH WIND       PRES   REMARKS
GILLETTE       PTCLDY    50  48  93 CALM      30.19F
SHERIDAN       PTCLDY    52  50  93 CALM      30.15F
BUFFALO WY     PTCLDY    54  52  93 SE5       30.20S
CODY           CLEAR     59  52  77 CALM      30.16F
YELLOWSTONE LA   N/A     51  49  92 CALM      30.34R
IDAHO FALLS    CLOUDY    63  51  65 E5        30.14F
SALMON         CLEAR     66  46  48 S8        30.08R
BOISE          PTCLDY    77  48  35 SE3       29.96S
SPOKANE        PTCLDY    78  44  29 NE7       29.93S
$$

REGIONAL REPORTS...ALBERTA

CITY           SKY/WX    TMP DP  RH WIND       PRES   REMARKS
EDMONTON       CLEAR     55  43  62 N8        30.08R
CALGARY        LGT RAIN  59  52  77 W6        30.15S
LETHBRIDGE     PTCLDY    57  50  77 NW13G31   30.06R
MEDICINE HAT   PTCLDY    57  46  67 N6        30.05R
WATERTON GATE    N/A     61  46  59 N10G28      N/A
MILK RIVER       N/A     54  48  82 S3          N/A
ONEFOUR          N/A     54  46  76 E6          N/A
$$

REGIONAL REPORTS...SASKATCHEWAN

CITY           SKY/WX    TMP DP  RH WIND       PRES   REMARKS
SWIFT CURRENT  CLEAR     54  48  82 S12       30.08S
REGINA         PTCLDY    48  43  81 SE8       30.12S
SASKATOON      PTCLDY    55  45  67 S8        30.05F
CYPRESS HILLS    N/A     50  41  71 S5          N/A
VAL MARIE        N/A     52  45  76 SW5         N/A
ROCKGLEN         N/A     52  46  82 SE10        N/A
ASSINIBOIA       N/A     52  46  82 SW5         N/A
$$



USA.gov is the U.S. government's official web portal to all federal, state and local government web resources and services.